When you browse on this site, cookies collect data to enhance your experience and personalize the content and advertising you see.
Visit our Privacy Policy to learn more. By continuing to use the site, you agree to this use of cookies and data.
  • en France
  • Liste des pays
  • À 7 jours
  • Température de l'eau
  • Carte satellitaire
  • Carte météo
  • Widgets météo
  • user-avatar
    Se connecter

    Météo par heure à Potosi

    Ce jour, 22 Mars, Vendredi

    Heure Température Précipitation Vent Pression Humidité
    00:00 +7°C° 0 mm 2 m/s 466 mmHg 87%
    01:00 +7°C° 0 mm 2 m/s 466 mmHg 87%
    02:00 +7°C° 0 mm 1 m/s 466 mmHg 87%
    03:00 +7°C° 0 mm 1 m/s 466 mmHg 87%
    04:00 +7°C° 0 mm 1 m/s 466 mmHg 88%
    05:00 +7°C° 0 mm 1 m/s 466 mmHg 88%
    06:00 +7°C° 0 mm 1 m/s 466 mmHg 82%
    07:00 +8°C° 0 mm 1 m/s 467 mmHg 76%
    08:00 +8°C° 0 mm 1 m/s 468 mmHg 70%
    09:00 +10°C° 0 mm 1 m/s 469 mmHg 60%
    10:00 +12°C° 0 mm 1 m/s 470 mmHg 50%
    11:00 +14°C° 0 mm 2 m/s 471 mmHg 40%
    12:00 +13°C° 0 mm 3 m/s 471 mmHg 38%
    13:00 +14°C° 0 mm 4 m/s 471 mmHg 36%
    14:00 +15°C° 0 mm 4 m/s 471 mmHg 34%
    15:00 +14°C° 0.2 mm 5 m/s 470 mmHg 40%
    16:00 +13°C° 0.2 mm 5 m/s 469 mmHg 45%
    17:00 +12°C° 0.2 mm 5 m/s 468 mmHg 51%
    18:00 +10°C° 0.7 mm 5 m/s 468 mmHg 55%
    19:00 +10°C° 0.7 mm 4 m/s 468 mmHg 59%
    20:00 +9°C° 0.7 mm 3 m/s 468 mmHg 63%
    21:00 +9°C° 0.1 mm 3 m/s 468 mmHg 66%
    22:00 +9°C° 0.1 mm 2 m/s 469 mmHg 69%
    23:00 +8°C° 0.1 mm 2 m/s 469 mmHg 72%

    Demain, 23 Mars, Samedi

    Heure Température Précipitation Vent Pression Humidité
    00:00 +8°C° 0 mm 2 m/s 468 mmHg 75%
    01:00 +7°C° 0 mm 2 m/s 468 mmHg 78%
    02:00 +7°C° 0 mm 2 m/s 468 mmHg 82%
    03:00 +6°C° 0 mm 2 m/s 468 mmHg 82%
    04:00 +6°C° 0 mm 2 m/s 467 mmHg 81%
    05:00 +7°C° 0 mm 1 m/s 467 mmHg 81%
    06:00 +7°C° 0 mm 1 m/s 468 mmHg 79%
    07:00 +7°C° 0 mm 1 m/s 468 mmHg 77%
    08:00 +8°C° 0 mm 1 m/s 469 mmHg 75%
    09:00 +8°C° 0 mm 2 m/s 469 mmHg 67%
    10:00 +10°C° 0 mm 2 m/s 470 mmHg 59%
    11:00 +12°C° 0 mm 2 m/s 471 mmHg 51%
    12:00 +13°C° 0.2 mm 2 m/s 471 mmHg 49%
    13:00 +13°C° 0.2 mm 3 m/s 471 mmHg 46%
    14:00 +14°C° 0.2 mm 4 m/s 470 mmHg 44%
    15:00 +13°C° 1.2 mm 4 m/s 469 mmHg 49%
    16:00 +12°C° 1.2 mm 4 m/s 468 mmHg 55%
    17:00 +11°C° 1.2 mm 4 m/s 467 mmHg 61%
    18:00 +10°C° 0.5 mm 4 m/s 467 mmHg 65%
    19:00 +9°C° 0.5 mm 3 m/s 467 mmHg 69%
    20:00 +8°C° 0.5 mm 3 m/s 467 mmHg 73%
    21:00 +8°C° 0 mm 3 m/s 467 mmHg 76%
    22:00 +7°C° 0 mm 2 m/s 467 mmHg 80%
    23:00 +7°C° 0 mm 2 m/s 467 mmHg 84%

    Après-demain, 24 Mars, Dimanche

    Heure Température Précipitation Vent Pression Humidité
    00:00 +7°C° 0 mm 2 m/s 467 mmHg 84%
    01:00 +6°C° 0 mm 2 m/s 467 mmHg 84%
    02:00 +6°C° 0 mm 2 m/s 467 mmHg 84%
    03:00 +6°C° 0 mm 2 m/s 467 mmHg 85%
    04:00 +6°C° 0 mm 2 m/s 466 mmHg 86%
    05:00 +7°C° 0 mm 1 m/s 466 mmHg 87%
    06:00 +7°C° 0 mm 1 m/s 467 mmHg 85%
    07:00 +8°C° 0 mm 1 m/s 467 mmHg 82%
    08:00 +8°C° 0 mm 1 m/s 468 mmHg 80%
    09:00 +8°C° 0.1 mm 2 m/s 469 mmHg 74%
    10:00 +9°C° 0.1 mm 2 m/s 469 mmHg 68%
    11:00 +10°C° 0.1 mm 2 m/s 470 mmHg 62%
    12:00 +11°C° 0.4 mm 3 m/s 470 mmHg 59%
    13:00 +11°C° 0.4 mm 3 m/s 470 mmHg 57%
    14:00 +12°C° 0.4 mm 4 m/s 469 mmHg 54%
    15:00 +11°C° 1.1 mm 4 m/s 468 mmHg 59%
    16:00 +10°C° 1.1 mm 4 m/s 468 mmHg 64%
    17:00 +8°C° 1.1 mm 4 m/s 467 mmHg 70%
    18:00 +8°C° 0.7 mm 4 m/s 467 mmHg 74%
    19:00 +8°C° 0.7 mm 3 m/s 467 mmHg 79%
    20:00 +7°C° 0.7 mm 3 m/s 467 mmHg 84%
    21:00 +7°C° 1.7 mm 3 m/s 467 mmHg 86%
    22:00 +5°C° 1.7 mm 3 m/s 467 mmHg 88%
    23:00 +6°C° 1.7 mm 2 m/s 467 mmHg 90%

    25 Mars, Lundi

    Heure Température Précipitation Vent Pression Humidité
    00:00 +6°C° 1.9 mm 2 m/s 467 mmHg 91%
    01:00 +6°C° 1.9 mm 2 m/s 466 mmHg 91%
    02:00 +5°C° 1.9 mm 2 m/s 466 mmHg 92%
    03:00 +5°C° 2.1 mm 2 m/s 466 mmHg 92%
    04:00 +5°C° 2.1 mm 2 m/s 466 mmHg 92%
    05:00 +5°C° 2.1 mm 2 m/s 466 mmHg 92%
    06:00 +5°C° 3.2 mm 2 m/s 466 mmHg 92%
    07:00 +5°C° 3.2 mm 2 m/s 466 mmHg 92%
    08:00 +5°C° 3.2 mm 2 m/s 466 mmHg 92%
    09:00 +5°C° 1.3 mm 2 m/s 466 mmHg 90%
    10:00 +5°C° 1.3 mm 2 m/s 467 mmHg 88%
    11:00 +5°C° 1.3 mm 2 m/s 467 mmHg 86%
    12:00 +6°C° 0.7 mm 2 m/s 467 mmHg 80%
    13:00 +7°C° 0.7 mm 2 m/s 466 mmHg 74%
    14:00 +7°C° 0.7 mm 2 m/s 466 mmHg 68%
    15:00 +7°C° 0.8 mm 2 m/s 466 mmHg 70%
    16:00 +8°C° 0.8 mm 1 m/s 465 mmHg 72%
    17:00 +7°C° 0.8 mm 1 m/s 465 mmHg 74%
    18:00 +7°C° 0.6 mm 1 m/s 465 mmHg 79%
    19:00 +6°C° 0.6 mm 2 m/s 465 mmHg 84%
    20:00 +5°C° 0.6 mm 2 m/s 465 mmHg 89%
    21:00 +5°C° 0 mm 2 m/s 465 mmHg 89%
    22:00 +5°C° 0 mm 2 m/s 466 mmHg 90%
    23:00 +5°C° 0 mm 2 m/s 466 mmHg 90%

    26 Mars, Mardi

    Heure Température Précipitation Vent Pression Humidité
    00:00 +6°C° 0.1 mm 1 m/s 466 mmHg 89%
    01:00 +6°C° 0.1 mm 1 m/s 466 mmHg 89%
    02:00 +6°C° 0.1 mm 1 m/s 465 mmHg 88%
    03:00 +5°C° 0 mm 1 m/s 465 mmHg 90%
    04:00 +5°C° 0 mm 1 m/s 465 mmHg 91%
    05:00 +5°C° 0 mm 1 m/s 465 mmHg 93%
    06:00 +5°C° 0 mm 1 m/s 465 mmHg 91%
    07:00 +5°C° 0 mm 1 m/s 466 mmHg 89%
    08:00 +6°C° 0 mm 1 m/s 467 mmHg 86%
    09:00 +6°C° 0.1 mm 2 m/s 467 mmHg 81%
    10:00 +7°C° 0.1 mm 2 m/s 468 mmHg 76%
    11:00 +8°C° 0.1 mm 2 m/s 468 mmHg 71%
    12:00 +8°C° 0.3 mm 3 m/s 468 mmHg 69%
    13:00 +9°C° 0.3 mm 3 m/s 468 mmHg 68%
    14:00 +9°C° 0.3 mm 3 m/s 468 mmHg 66%
    15:00 +9°C° 0.5 mm 3 m/s 468 mmHg 70%
    16:00 +7°C° 0.5 mm 4 m/s 467 mmHg 73%
    17:00 +7°C° 0.5 mm 4 m/s 467 mmHg 77%
    18:00 +6°C° 0.3 mm 4 m/s 467 mmHg 81%
    19:00 +5°C° 0.3 mm 4 m/s 467 mmHg 85%
    20:00 +5°C° 0.3 mm 3 m/s 467 mmHg 90%
    21:00 +4°C° 0.6 mm 3 m/s 467 mmHg 90%
    22:00 +4°C° 0.6 mm 3 m/s 467 mmHg 91%
    23:00 +4°C° 0.6 mm 3 m/s 467 mmHg 91%

    27 Mars, Mercredi

    Heure Température Précipitation Vent Pression Humidité
    00:00 +4°C° 0.5 mm 3 m/s 467 mmHg 92%
    01:00 +4°C° 0.5 mm 3 m/s 467 mmHg 92%
    02:00 +3°C° 0.5 mm 3 m/s 467 mmHg 92%
    03:00 +3°C° 0.5 mm 3 m/s 467 mmHg 92%
    04:00 +3°C° 0.5 mm 3 m/s 467 mmHg 92%
    05:00 +4°C° 0.5 mm 2 m/s 467 mmHg 92%
    06:00 +3°C° 0.4 mm 3 m/s 467 mmHg 93%
    07:00 +3°C° 0.4 mm 3 m/s 468 mmHg 93%
    08:00 +3°C° 0.4 mm 3 m/s 468 mmHg 93%
    09:00 +3°C° 0.4 mm 3 m/s 468 mmHg 90%
    10:00 +4°C° 0.4 mm 3 m/s 468 mmHg 87%
    11:00 +4°C° 0.4 mm 3 m/s 469 mmHg 84%
    12:00 +5°C° 0.2 mm 3 m/s 468 mmHg 82%
    13:00 +5°C° 0.2 mm 3 m/s 468 mmHg 80%
    14:00 +5°C° 0.2 mm 3 m/s 467 mmHg 77%
    15:00 +7°C° 0 mm 3 m/s 467 mmHg 76%
    16:00 +7°C° 0 mm 3 m/s 467 mmHg 75%
    17:00 +7°C° 0 mm 3 m/s 467 mmHg 74%
    18:00 +5°C° 0 mm 3 m/s 467 mmHg 79%
    19:00 +5°C° 0 mm 3 m/s 467 mmHg 83%
    20:00 +4°C° 0 mm 3 m/s 467 mmHg 88%
    21:00 +4°C° 0 mm 3 m/s 467 mmHg 88%
    22:00 +4°C° 0 mm 3 m/s 468 mmHg 87%
    23:00 +4°C° 0 mm 3 m/s 468 mmHg 87%
    Voir plus